AEE317 LATI-LGKF

Flight info

Callsign AEE317
Flight time 0h 58m
Altitude 17000
Route ELBAK/N0275F160 DCT PITAS/N0273F170 N732 KRK
Aircraft AT76/M-SDFGIRY/S

Departure

Time 2026-04-26 10:01
Airport Tirana International Airport Mother Teresa (LATI)

Arrival

Time 2026-04-26 11:00
Airport Kefallinia Airport (LGKF)
Time Latitude Longitude Altitude Speed Heading
2026-04-26 09:31 41.41951 19.71509 128 ft 0 kts 264°
2026-04-26 09:51 41.41953 19.71533 125 ft 5 kts 266°
2026-04-26 09:52 41.41961 19.71581 123 ft 1 kts 192°
2026-04-26 09:52 41.41962 19.71581 128 ft 0 kts 186°
2026-04-26 09:52 41.41961 19.71581 123 ft 1 kts 187°
2026-04-26 09:53 41.41954 19.71579 128 ft 0 kts 190°
2026-04-26 09:53 41.41938 19.71577 128 ft 4 kts 181°
2026-04-26 09:53 41.41902 19.71581 124 ft 6 kts 174°
2026-04-26 09:54 41.41858 19.71586 126 ft 7 kts 175°
2026-04-26 09:54 41.41806 19.71592 126 ft 8 kts 175°
2026-04-26 09:54 41.41748 19.71600 128 ft 9 kts 174°
2026-04-26 09:54 41.41686 19.71608 124 ft 9 kts 174°
2026-04-26 09:55 41.41622 19.71616 126 ft 9 kts 174°
2026-04-26 09:55 41.41556 19.71625 126 ft 10 kts 174°
2026-04-26 09:55 41.41489 19.71634 126 ft 10 kts 174°
2026-04-26 09:55 41.41421 19.71643 127 ft 10 kts 174°
2026-04-26 09:56 41.41352 19.71652 123 ft 10 kts 175°
2026-04-26 09:56 41.41284 19.71661 124 ft 10 kts 174°
2026-04-26 09:56 41.41214 19.71670 128 ft 10 kts 174°
2026-04-26 09:56 41.41145 19.71680 128 ft 10 kts 174°
2026-04-26 09:57 41.41077 19.71689 125 ft 10 kts 174°
2026-04-26 09:57 41.41007 19.71697 125 ft 10 kts 174°
2026-04-26 09:57 41.40938 19.71708 126 ft 10 kts 171°
2026-04-26 09:57 41.40866 19.71724 124 ft 12 kts 170°
2026-04-26 09:58 41.40786 19.71743 128 ft 12 kts 168°
2026-04-26 09:58 41.40704 19.71760 126 ft 14 kts 175°
2026-04-26 09:58 41.40637 19.71783 127 ft 9 kts 135°
2026-04-26 09:58 41.40631 19.71848 128 ft 0 kts 76°
2026-04-26 09:59 41.40637 19.71883 126 ft 11 kts 76°
2026-04-26 09:59 41.40649 19.71948 125 ft 11 kts 76°
2026-04-26 09:59 41.40670 19.72060 129 ft 9 kts 76°
2026-04-26 09:59 41.40693 19.72146 128 ft 10 kts 46°
2026-04-26 10:00 41.40734 19.72154 129 ft 0 kts 353°
2026-04-26 10:00 41.40830 19.72142 126 ft 41 kts 354°
2026-04-26 10:01 41.41316 19.72077 123 ft 98 kts 354°
2026-04-26 10:01 41.42137 19.71959 224 ft 129 kts 352°
2026-04-26 10:01 41.43010 19.71788 700 ft 127 kts 350°
2026-04-26 10:01 41.43872 19.71560 1195 ft 131 kts 348°
2026-04-26 10:02 41.44752 19.71327 1775 ft 123 kts 350°
2026-04-26 10:02 41.45599 19.71147 2080 ft 131 kts 352°
2026-04-26 10:02 41.46521 19.71023 2371 ft 134 kts 359°
2026-04-26 10:02 41.47483 19.70980 2603 ft 145 kts 357°
2026-04-26 10:03 41.48522 19.70876 2751 ft 160 kts 354°
2026-04-26 10:03 41.49709 19.70757 2846 ft 179 kts 357°
2026-04-26 10:03 41.50962 19.70649 3162 ft 181 kts 351°
2026-04-26 10:03 41.52006 19.69777 3479 ft 183 kts 302°
2026-04-26 10:04 41.52219 19.68143 3783 ft 186 kts 257°
2026-04-26 10:04 41.51477 19.66787 4096 ft 185 kts 209°
2026-04-26 10:04 41.50237 19.66544 4406 ft 185 kts 163°
2026-04-26 10:04 41.49217 19.67528 4720 ft 183 kts 126°
2026-04-26 10:05 41.48458 19.68912 5001 ft 186 kts 126°
2026-04-26 10:05 41.47641 19.70256 5315 ft 187 kts 131°
2026-04-26 10:05 41.46739 19.71516 5627 ft 188 kts 134°
2026-04-26 10:05 41.45793 19.72731 5931 ft 189 kts 138°
2026-04-26 10:06 41.44762 19.73824 6255 ft 190 kts 144°
2026-04-26 10:06 41.43648 19.74782 6569 ft 191 kts 149°
2026-04-26 10:06 41.42467 19.75607 6872 ft 193 kts 154°
2026-04-26 10:06 41.41242 19.76342 7173 ft 194 kts 156°
2026-04-26 10:07 41.39995 19.77044 7457 ft 195 kts 156°
2026-04-26 10:07 41.38744 19.77752 7743 ft 196 kts 156°
2026-04-26 10:07 41.37910 19.78222 7922 ft 198 kts 156°
2026-04-26 10:07 41.36211 19.79182 8294 ft 199 kts 156°
2026-04-26 10:08 41.35369 19.79665 8470 ft 199 kts 156°
2026-04-26 10:08 41.34093 19.80403 8733 ft 200 kts 156°
2026-04-26 10:08 41.32812 19.81150 8987 ft 202 kts 156°
2026-04-26 10:08 41.31525 19.81903 9260 ft 202 kts 156°
2026-04-26 10:09 41.30231 19.82658 9511 ft 204 kts 156°
2026-04-26 10:09 41.28930 19.83419 9772 ft 205 kts 156°
2026-04-26 10:09 41.27619 19.84183 10027 ft 207 kts 156°
2026-04-26 10:09 41.26298 19.84954 10264 ft 208 kts 156°
2026-04-26 10:10 41.24973 19.85726 10514 ft 209 kts 156°
2026-04-26 10:10 41.23638 19.86508 10757 ft 210 kts 156°
2026-04-26 10:10 41.22292 19.87291 10979 ft 212 kts 156°
2026-04-26 10:10 41.20938 19.88080 11232 ft 212 kts 156°
2026-04-26 10:11 41.19578 19.88869 11477 ft 214 kts 156°
2026-04-26 10:11 41.18207 19.89668 11699 ft 216 kts 156°
2026-04-26 10:11 41.16826 19.90472 11965 ft 217 kts 156°
2026-04-26 10:11 41.15439 19.91277 12193 ft 218 kts 156°
2026-04-26 10:12 41.14049 19.92087 12422 ft 219 kts 156°
2026-04-26 10:12 41.12652 19.92899 12649 ft 219 kts 156°
2026-04-26 10:12 41.11250 19.93715 12876 ft 221 kts 156°
2026-04-26 10:12 41.09838 19.94532 13090 ft 222 kts 156°
2026-04-26 10:13 41.08438 19.95343 13326 ft 222 kts 156°
2026-04-26 10:13 41.07020 19.96165 13547 ft 223 kts 156°
2026-04-26 10:13 41.05591 19.96996 13749 ft 224 kts 156°
2026-04-26 10:13 41.04156 19.97825 13951 ft 226 kts 156°
2026-04-26 10:14 41.02715 19.98659 14165 ft 226 kts 157°
2026-04-26 10:14 41.01267 19.99494 14364 ft 227 kts 157°
2026-04-26 10:14 40.99818 20.00334 14542 ft 228 kts 157°
2026-04-26 10:14 40.98363 20.01176 14734 ft 228 kts 157°
2026-04-26 10:15 40.96905 20.02017 14929 ft 229 kts 157°
2026-04-26 10:15 40.95443 20.02860 15128 ft 230 kts 157°
2026-04-26 10:15 40.93977 20.03710 15321 ft 231 kts 157°
2026-04-26 10:15 40.92502 20.04561 15464 ft 232 kts 157°
2026-04-26 10:16 40.91488 20.05148 15590 ft 232 kts 157°
2026-04-26 10:16 40.90046 20.05974 15791 ft 233 kts 158°
2026-04-26 10:16 40.88542 20.06840 15982 ft 233 kts 157°
2026-04-26 10:16 40.87047 20.07690 16141 ft 233 kts 160°
2026-04-26 10:17 40.85459 20.07953 16268 ft 231 kts 187°
2026-04-26 10:17 40.83892 20.07657 16446 ft 231 kts 194°
2026-04-26 10:17 40.82324 20.07204 16637 ft 231 kts 196°
2026-04-26 10:17 40.80754 20.06734 16810 ft 231 kts 196°
2026-04-26 10:18 40.79180 20.06284 16967 ft 233 kts 195°
2026-04-26 10:18 40.77572 20.05865 17025 ft 238 kts 194°
2026-04-26 10:18 40.75923 20.05452 17056 ft 244 kts 194°
2026-04-26 10:18 40.74235 20.05033 17064 ft 249 kts 194°
2026-04-26 10:19 40.72521 20.04606 17077 ft 253 kts 193°
2026-04-26 10:19 40.70777 20.04175 17084 ft 257 kts 193°
2026-04-26 10:19 40.69003 20.03735 17085 ft 261 kts 194°
2026-04-26 10:19 40.67208 20.03291 17082 ft 264 kts 193°
2026-04-26 10:20 40.65397 20.02844 17076 ft 266 kts 193°
2026-04-26 10:20 40.63582 20.02394 17080 ft 268 kts 193°
2026-04-26 10:20 40.61742 20.01943 17084 ft 270 kts 193°
2026-04-26 10:20 40.59892 20.01486 17076 ft 271 kts 193°
2026-04-26 10:21 40.58036 20.01026 17082 ft 272 kts 193°
2026-04-26 10:21 40.56178 20.00568 17082 ft 273 kts 193°
2026-04-26 10:21 40.54310 20.00105 17079 ft 273 kts 193°
2026-04-26 10:21 40.52438 19.99644 17076 ft 274 kts 193°
2026-04-26 10:22 40.50560 19.99182 17070 ft 275 kts 193°
2026-04-26 10:22 40.48682 19.98719 17065 ft 274 kts 193°
2026-04-26 10:22 40.46809 19.98262 17069 ft 273 kts 193°
2026-04-26 10:22 40.44979 19.97812 17075 ft 273 kts 193°
2026-04-26 10:23 40.43096 19.97345 17076 ft 274 kts 193°
2026-04-26 10:23 40.41225 19.96884 17073 ft 274 kts 193°
2026-04-26 10:23 40.39346 19.96424 17069 ft 274 kts 193°
2026-04-26 10:23 40.37472 19.95963 17070 ft 274 kts 193°
2026-04-26 10:24 40.35599 19.95504 17073 ft 274 kts 193°
2026-04-26 10:24 40.33726 19.95046 17074 ft 274 kts 193°
2026-04-26 10:24 40.31852 19.94584 17078 ft 274 kts 193°
2026-04-26 10:24 40.29972 19.94125 17078 ft 275 kts 193°
2026-04-26 10:25 40.28088 19.93664 17075 ft 276 kts 193°
2026-04-26 10:25 40.26199 19.93202 17071 ft 277 kts 193°
2026-04-26 10:25 40.24307 19.92741 17059 ft 276 kts 193°
2026-04-26 10:25 40.22417 19.92286 17074 ft 276 kts 193°
2026-04-26 10:26 40.20523 19.91819 17070 ft 277 kts 193°
2026-04-26 10:26 40.18627 19.91353 17065 ft 277 kts 193°
2026-04-26 10:26 40.16754 19.90895 17056 ft 277 kts 193°
2026-04-26 10:26 40.14835 19.90429 17060 ft 277 kts 193°
2026-04-26 10:27 40.12968 19.89973 17061 ft 276 kts 193°
2026-04-26 10:27 40.11078 19.89512 17068 ft 277 kts 193°
2026-04-26 10:27 40.09181 19.89051 17067 ft 277 kts 193°
2026-04-26 10:27 40.07283 19.88590 17063 ft 278 kts 193°
2026-04-26 10:28 40.05377 19.88124 17054 ft 279 kts 193°
2026-04-26 10:28 40.03471 19.87664 17053 ft 278 kts 193°
2026-04-26 10:28 40.01565 19.87200 17050 ft 278 kts 193°
2026-04-26 10:28 39.99664 19.86737 17049 ft 277 kts 193°
2026-04-26 10:29 39.97769 19.86277 17051 ft 277 kts 193°
2026-04-26 10:29 39.95880 19.85820 17052 ft 276 kts 193°
2026-04-26 10:29 39.93993 19.85365 17053 ft 276 kts 193°
2026-04-26 10:29 39.92106 19.84905 17054 ft 275 kts 193°
2026-04-26 10:30 39.90211 19.84549 17051 ft 276 kts 180°
2026-04-26 10:30 39.88337 19.85057 17055 ft 276 kts 161°
2026-04-26 10:30 39.86550 19.85989 17054 ft 277 kts 157°
2026-04-26 10:30 39.84786 19.86997 17054 ft 277 kts 157°
2026-04-26 10:31 39.83016 19.87988 17054 ft 277 kts 158°
2026-04-26 10:31 39.81248 19.88905 17055 ft 277 kts 160°
2026-04-26 10:31 39.79442 19.89799 17055 ft 278 kts 160°
2026-04-26 10:31 39.77636 19.90703 17056 ft 279 kts 160°
2026-04-26 10:32 39.75826 19.91612 17053 ft 280 kts 160°
2026-04-26 10:32 39.74005 19.92523 17036 ft 280 kts 159°
2026-04-26 10:32 39.72191 19.93436 17042 ft 279 kts 159°
2026-04-26 10:32 39.70374 19.94345 17046 ft 279 kts 160°
2026-04-26 10:33 39.68565 19.95253 17045 ft 279 kts 160°
2026-04-26 10:33 39.66752 19.96160 17045 ft 279 kts 160°
2026-04-26 10:33 39.64937 19.97068 17045 ft 279 kts 160°
2026-04-26 10:33 39.63126 19.97976 17047 ft 279 kts 160°
2026-04-26 10:34 39.61316 19.98878 17046 ft 279 kts 160°
2026-04-26 10:34 39.59506 19.99783 17044 ft 279 kts 160°
2026-04-26 10:34 39.57694 20.00688 17044 ft 279 kts 159°
2026-04-26 10:34 39.55884 20.01592 17046 ft 279 kts 159°
2026-04-26 10:35 39.54075 20.02493 17046 ft 278 kts 159°
2026-04-26 10:35 39.52265 20.03395 17044 ft 279 kts 159°
2026-04-26 10:35 39.50453 20.04296 17045 ft 279 kts 159°
2026-04-26 10:35 39.48671 20.05183 17045 ft 278 kts 159°
2026-04-26 10:36 39.46839 20.06096 17045 ft 279 kts 159°
2026-04-26 10:36 39.45032 20.07000 17047 ft 278 kts 159°
2026-04-26 10:36 39.43223 20.07896 17053 ft 279 kts 160°
2026-04-26 10:36 39.41431 20.08777 17050 ft 279 kts 160°
2026-04-26 10:37 39.39612 20.09668 17046 ft 280 kts 160°
2026-04-26 10:37 39.37791 20.10557 17045 ft 279 kts 160°
2026-04-26 10:37 39.35945 20.11344 17049 ft 279 kts 164°
2026-04-26 10:37 39.34076 20.11992 17047 ft 276 kts 173°
2026-04-26 10:38 39.32169 20.12052 17052 ft 274 kts 182°
2026-04-26 10:38 39.30263 20.12130 17052 ft 275 kts 177°
2026-04-26 10:38 39.28356 20.12462 17053 ft 276 kts 169°
2026-04-26 10:38 39.26490 20.13040 17056 ft 276 kts 166°
2026-04-26 10:39 39.24638 20.13708 17055 ft 276 kts 165°
2026-04-26 10:39 39.22789 20.14383 17058 ft 276 kts 165°
2026-04-26 10:39 39.20935 20.15036 17060 ft 277 kts 166°
2026-04-26 10:39 39.19067 20.15655 17059 ft 278 kts 166°
2026-04-26 10:40 39.17189 20.16270 17051 ft 278 kts 166°
2026-04-26 10:40 39.15315 20.16887 17050 ft 278 kts 166°
2026-04-26 10:40 39.13439 20.17501 17051 ft 278 kts 166°
2026-04-26 10:40 39.11567 20.18112 17053 ft 277 kts 166°
2026-04-26 10:41 39.09695 20.18729 17054 ft 277 kts 166°
2026-04-26 10:41 39.07825 20.19344 17050 ft 278 kts 166°
2026-04-26 10:41 39.05918 20.19966 16771 ft 288 kts 166°
2026-04-26 10:41 39.03981 20.20596 16488 ft 291 kts 166°
2026-04-26 10:42 39.02023 20.21221 16201 ft 289 kts 167°
2026-04-26 10:42 39.00073 20.21839 15908 ft 288 kts 166°
2026-04-26 10:42 38.98138 20.22455 15632 ft 286 kts 167°
2026-04-26 10:42 38.96217 20.23028 15393 ft 282 kts 172°
2026-04-26 10:43 38.94259 20.23194 15023 ft 284 kts 181°
2026-04-26 10:43 38.92273 20.23168 14641 ft 286 kts 182°
2026-04-26 10:43 38.90269 20.23142 14256 ft 288 kts 181°
2026-04-26 10:43 38.88260 20.23183 13870 ft 289 kts 179°
2026-04-26 10:44 38.86248 20.23273 13483 ft 290 kts 179°
2026-04-26 10:44 38.84234 20.23352 13094 ft 290 kts 179°
2026-04-26 10:44 38.82219 20.23428 12708 ft 289 kts 179°
2026-04-26 10:44 38.80209 20.23502 12321 ft 289 kts 179°
2026-04-26 10:45 38.78200 20.23579 11937 ft 289 kts 179°
2026-04-26 10:45 38.76196 20.23656 11550 ft 288 kts 179°
2026-04-26 10:45 38.74197 20.23728 11165 ft 285 kts 179°
2026-04-26 10:45 38.72226 20.23805 10786 ft 282 kts 179°
2026-04-26 10:46 38.70275 20.23877 10409 ft 279 kts 179°
2026-04-26 10:46 38.68345 20.23949 10036 ft 276 kts 179°
2026-04-26 10:46 38.66431 20.24022 9665 ft 274 kts 179°
2026-04-26 10:46 38.64536 20.24092 9297 ft 271 kts 179°
2026-04-26 10:47 38.62657 20.24160 8932 ft 269 kts 179°
2026-04-26 10:47 38.60816 20.24231 8562 ft 267 kts 179°
2026-04-26 10:47 38.58973 20.24298 8217 ft 262 kts 179°
2026-04-26 10:47 38.57171 20.24367 7867 ft 255 kts 179°
2026-04-26 10:48 38.55450 20.24433 7516 ft 237 kts 179°
2026-04-26 10:48 38.53876 20.24489 7222 ft 216 kts 179°
2026-04-26 10:48 38.52433 20.24547 6936 ft 200 kts 179°
2026-04-26 10:48 38.51074 20.24600 6671 ft 196 kts 179°
2026-04-26 10:49 38.49695 20.24651 6409 ft 201 kts 179°
2026-04-26 10:49 38.48311 20.24697 6143 ft 195 kts 180°
2026-04-26 10:49 38.46970 20.24749 5885 ft 194 kts 179°
2026-04-26 10:49 38.45607 20.24798 5626 ft 196 kts 179°
2026-04-26 10:50 38.44266 20.24848 5366 ft 188 kts 179°
2026-04-26 10:50 38.43410 20.24881 5199 ft 184 kts 180°
2026-04-26 10:50 38.41675 20.24946 4865 ft 191 kts 180°
2026-04-26 10:50 38.40323 20.24994 4609 ft 196 kts 180°
2026-04-26 10:51 38.38950 20.25043 4339 ft 199 kts 180°
2026-04-26 10:51 38.36245 20.25142 3816 ft 195 kts 180°
2026-04-26 10:51 38.34878 20.25191 3552 ft 198 kts 180°
2026-04-26 10:52 38.33505 20.25239 3306 ft 191 kts 180°
2026-04-26 10:52 38.32330 20.25620 3248 ft 170 kts 143°
2026-04-26 10:52 38.31608 20.26734 3196 ft 159 kts 122°
2026-04-26 10:52 38.31082 20.27943 3147 ft 156 kts 114°
2026-04-26 10:53 38.30666 20.29217 3101 ft 157 kts 108°
2026-04-26 10:53 38.30331 20.30543 3055 ft 158 kts 104°
2026-04-26 10:53 38.30049 20.31906 3010 ft 160 kts 102°
2026-04-26 10:54 38.29512 20.34682 2946 ft 160 kts 103°
2026-04-26 10:54 38.28913 20.35805 2956 ft 155 kts 143°
2026-04-26 10:54 38.28029 20.36599 2952 ft 156 kts 147°
2026-04-26 10:54 38.27115 20.37347 2957 ft 156 kts 148°
2026-04-26 10:55 38.26187 20.38082 3005 ft 157 kts 149°
2026-04-26 10:55 38.25276 20.38800 3118 ft 152 kts 149°
2026-04-26 10:55 38.24398 20.39501 2987 ft 145 kts 148°
2026-04-26 10:55 38.23836 20.39957 2875 ft 144 kts 149°
2026-04-26 10:56 38.22714 20.40897 2615 ft 144 kts 149°
2026-04-26 10:56 38.21895 20.41595 2388 ft 139 kts 149°
2026-04-26 10:56 38.21128 20.42250 2284 ft 127 kts 149°
2026-04-26 10:56 38.20407 20.42858 2171 ft 126 kts 149°
2026-04-26 10:57 38.19910 20.43269 2085 ft 126 kts 149°
2026-04-26 10:57 38.18937 20.44060 1964 ft 125 kts 149°
2026-04-26 10:57 38.18203 20.44657 1739 ft 126 kts 148°
2026-04-26 10:57 38.17472 20.45259 1511 ft 124 kts 147°
2026-04-26 10:58 38.16768 20.45868 1309 ft 120 kts 142°
2026-04-26 10:58 38.16087 20.46541 1031 ft 126 kts 143°
2026-04-26 10:58 38.15609 20.47001 883 ft 129 kts 144°
2026-04-26 10:58 38.14882 20.47633 663 ft 130 kts 147°
2026-04-26 10:59 38.14106 20.48254 408 ft 130 kts 148°
2026-04-26 10:59 38.13371 20.48884 202 ft 125 kts 144°
2026-04-26 10:59 38.12664 20.49499 50 ft 119 kts 146°
2026-04-26 10:59 38.12073 20.49994 60 ft 62 kts 151°
2026-04-26 11:00 38.11910 20.50127 60 ft 11 kts 144°
2026-04-26 11:00 38.11893 20.50217 59 ft 11 kts 84°
2026-04-26 11:00 38.11897 20.50257 64 ft 3 kts 83°
2026-04-26 11:00 38.11891 20.50296 64 ft 6 kts 118°
2026-04-26 11:01 38.11873 20.50335 58 ft 8 kts 90°
2026-04-26 11:01 38.11900 20.50393 58 ft 6 kts 56°
2026-04-26 11:01 38.11909 20.50409 64 ft 0 kts 56°